CAPE
323 418 568 498 487 566 620 692 807 883 863 709 605 461 394 558 651 516 441 340 240 175 66 0 0 0 0 0 0 5 0 0
87 75 238 298 365 475 541 611 570 418 397 332 298 338 350 348 389 419 391 282 172 32 0 0 0 0 0 0 0 0 0 0
79 119 59 150 187 335 361 483 349 284 247 234 113 89 58 174 291 394 371 221 93 0 0 0 0 0 0 0 0 0 0 0
224 112 60 85 33 145 169 206 170 100 64 136 149 192 170 253 253 272 229 133 30 0 0 0 0 0 0 0 0 0 0 0
105 152 23 17 69 0 28 72 173 203 226 205 270 217 209 198 88 38 3 1 0 0 0 0 0 0 0 0 0 0 0 0
141 76 118 2 7 2 0 23 139 299 252 361 415 355 299 149 76 51 0 0 0 0 0 0 0 0 0 0 0 0 0 0
84 83 61 48 8 11 1 46 128 170 333 371 403 336 394 235 167 66 0 8 0 0 0 0 0 0 0 0 0 0 0 0
55 14 8 7 14 45 16 73 73 135 284 330 359 389 365 334 313 216 89 0 0 0 0 0 0 0 0 0 0 0 0 0
10 10 30 4 4 5 21 17 3 58 220 296 321 162 231 351 153 166 91 3 1 0 0 0 0 0 0 0 0 0 0 0
16 0 11 0 0 1 3 5 87 154 160 370 365 321 360 480 285 150 57 0 0 0 0 0 0 0 0 0 0 0 0 0
0 0 0 2 1 0 4 56 211 214 158 569 555 551 379 348 283 158 39 0 0 0 0 0 0 0 0 0 0 0 0 0
0 0 0 0 7 20 4 25 81 54 129 467 423 442 402 343 380 129 21 0 0 0 0 0 0 0 0 0 0 0 0 0
0 0 0 18 15 7 109 0 2 11 331 483 494 490 338 328 288 77 26 0 0 0 0 0 0 0 0 0 0 0 0 0
0 3 5 8 18 122 103 0 0 21 472 521 397 333 274 295 246 84 21 0 0 0 0 0 0 0 0 0 0 0 0 0
52 116 95 67 118 181 153 10 3 2 565 652 565 476 447 185 142 85 30 6 0 0 0 0 0 0 0 0 0 0 0 0
89 41 45 98 173 89 142 2 0 56 533 585 588 646 493 258 152 115 44 14 3 0 0 0 0 0 0 0 0 0 0 0
278 263 244 270 345 368 284 37 3 35 512 558 646 573 508 292 199 58 28 21 32 35 23 4 0 0 0 0 0 0 0 0
588 459 442 376 449 411 494 145 191 346 493 577 521 380 463 369 136 50 19 32 28 11 11 0 0 0 0 0 0 0 0 0
643 642 586 603 670 759 500 626 434 484 665 680 539 454 469 384 138 42 31 27 10 2 0 3 1 2 0 0 0 0 0 2
581 622 622 584 677 838 864 649 828 869 745 648 507 363 264 133 36 11 36 0 0 5 24 30 17 0 0 0 0 3 11 1
CIN
-16 -0 -1 -3 -5 -5 -4 -6 -5 -4 -1 -2 -12 -32 -42 -24 -17 -26 -35 -42 -48 -49 -62 -0 -0 -0 -0 -0 -0 -86 -0 -0
-2 -7 -7 -1 -4 -2 -4 -6 -9 -36 -36 -34 -50 -52 -52 -57 -41 -35 -36 -53 -62 -82 -0 -0 -0 -0 -0 -0 -0 -0 -0 -0
-10 -2 -1 -59 -10 -10 -12 -8 -22 -57 -49 -52 -114 -95 -149 -68 -69 -49 -53 -78 -95 -0 -0 -0 -0 -0 -0 -0 -0 -0 -0 -0
-0 -0 -2 -3 -3 -10 -16 -10 -31 -80 -120 -71 -42 -60 -99 -92 -103 -98 -101 -111 -128 -0 -0 -0 -0 -0 -0 -0 -0 -0 -0 -0
-14 -0 -7 -7 -1 -0 -2 -21 -42 -32 -44 -32 -61 -84 -113 -143 -202 -241 -88 -36 -0 -0 -0 -0 -0 -0 -0 -0 -0 -0 -0 -0
-0 -0 -0 -1 -0 -0 -0 -63 -8 -52 -29 -34 -35 -49 -88 -122 -140 -145 -0 -0 -0 -0 -0 -0 -0 -0 -0 -0 -0 -0 -0 -0
-0 -6 -4 -1 -0 -1 -36 -53 -43 -26 -29 -23 -33 -66 -63 -80 -68 -54 -0 -20 -0 -0 -0 -0 -0 -0 -0 -0 -0 -0 -0 -0
-0 -4 -10 -8 -0 -77 -49 -35 -67 -17 -35 -52 -53 -30 -33 -24 -18 -16 -19 -0 -0 -0 -0 -0 -0 -0 -0 -0 -0 -0 -0 -0
-1 -6 -0 -0 -0 -0 -13 -4 -0 -20 -26 -50 -20 -47 -45 -17 -27 -20 -14 -3 -10 -0 -0 -0 -0 -0 -0 -0 -0 -0 -0 -0
-0 -0 -0 -0 -0 -0 -0 -27 -17 -21 -40 -38 -33 -19 -26 -10 -18 -18 -17 -0 -0 -0 -0 -0 -0 -0 -0 -0 -0 -0 -0 -0
-0 -0 -0 -0 -0 -0 -27 -41 -42 -24 -34 -26 -23 -13 -17 -14 -16 -16 -16 -0 -0 -0 -0 -0 -0 -0 -0 -0 -0 -0 -0 -0
-0 -0 -0 -0 -0 -0 -31 -21 -31 -31 -43 -25 -35 -18 -9 -18 -19 -49 -13 -0 -0 -0 -0 -0 -0 -0 -0 -0 -0 -0 -0 -0
-0 -0 -0 -8 -14 -9 -5 -0 -5 -49 -59 -18 -40 -19 -10 -18 -12 -3 -15 -0 -0 -0 -0 -0 -0 -0 -0 -0 -0 -0 -0 -0
-0 -9 -5 -0 -5 -5 -6 -0 -0 -38 -27 -13 -12 -30 -3 -20 -24 -36 -59 -0 -0 -0 -0 -0 -0 -0 -0 -0 -0 -0 -0 -0
-88 -53 -52 -40 -21 -19 -9 -17 -8 -13 -22 -30 -21 -8 -12 -33 -49 -38 -71 -82 -0 -0 -0 -0 -0 -0 -0 -0 -0 -0 -0 -0
-109 -119 -114 -77 -34 -44 -27 -7 -0 -65 -16 -29 -29 -14 -7 -31 -24 -25 -36 -22 -32 -0 -0 -0 -0 -0 -0 -0 -0 -0 -0 -0
-110 -65 -59 -50 -35 -33 -3 -58 -18 -62 -13 -11 -8 -14 -23 -43 -3 -15 -36 -2 -0 -1 -1 -4 -0 -0 -0 -0 -0 -0 -0 -0
-79 -76 -60 -59 -48 -43 -36 -57 -32 -9 -14 -19 -44 -35 -50 -36 -36 -18 -41 -2 -0 -0 -0 -0 -0 -0 -0 -0 -0 -0 -0 -0
-106 -91 -80 -61 -41 -41 -62 -29 -48 -15 -13 -22 -22 -51 -56 -61 -79 -59 -38 -9 -7 -0 -0 -16 -0 -0 -0 -0 -0 -0 -0 -0
-157 -132 -121 -94 -55 -31 -48 -109 -17 -7 -9 -8 -15 -31 -108 -90 -47 -32 -31 -0 -0 -6 -4 -0 -0 -0 -0 -0 -0 -0 -0 -0
Wind_Speed
35 29 26 26 29 33 34 36 41 40 46 43 45 46 44 39 34 35 30 27 26 26 nan nan nan nan nan nan nan nan nan nan
nan nan 26 28 32 37 40 41 42 45 50 44 45 46 47 45 38 36 35 27 24 nan nan nan nan nan nan nan nan nan nan nan
nan 21 nan 28 30 35 39 56 50 50 47 42 43 nan nan 37 41 40 32 23 nan nan nan nan nan nan nan nan nan nan nan nan
24 23 nan nan nan 34 33 38 39 44 nan 46 40 42 34 43 41 42 27 16 nan nan nan nan nan nan nan nan nan nan nan nan
33 28 nan nan nan nan nan nan 36 42 22 30 29 32 42 41 nan nan nan nan nan nan nan nan nan nan nan nan nan nan nan nan
36 nan 39 nan nan nan nan nan 28 28 33 32 38 43 42 35 nan nan nan nan nan nan nan nan nan nan nan nan nan nan nan nan
nan nan nan nan nan nan nan nan 28 31 30 27 28 27 23 22 23 nan nan nan nan nan nan nan nan nan nan nan nan nan nan nan
nan nan nan nan nan nan nan nan nan 19 25 23 14 12 16 19 13 10 nan nan nan nan nan nan nan nan nan nan nan nan nan nan
nan nan nan nan nan nan nan nan nan nan 9 3 11 18 17 10 8 8 nan nan nan nan nan nan nan nan nan nan nan nan nan nan
nan nan nan nan nan nan nan nan nan 11 12 14 15 12 5 7 7 6 nan nan nan nan nan nan nan nan nan nan nan nan nan nan
nan nan nan nan nan nan nan nan 13 17 13 9 6 5 4 3 6 8 nan nan nan nan nan nan nan nan nan nan nan nan nan nan
nan nan nan nan nan nan nan nan nan nan 10 4 1 1 5 5 9 14 nan nan nan nan nan nan nan nan nan nan nan nan nan nan
nan nan nan nan nan nan 14 nan nan nan 5 8 9 1 12 9 8 nan nan nan nan nan nan nan nan nan nan nan nan nan nan nan
nan nan nan nan nan 12 12 nan nan nan 8 10 19 13 17 11 10 nan nan nan nan nan nan nan nan nan nan nan nan nan nan nan
nan 21 nan nan 22 16 14 nan nan nan 11 10 10 14 14 17 18 nan nan nan nan nan nan nan nan nan nan nan nan nan nan nan
nan nan nan nan 25 nan 19 nan nan nan 16 14 14 14 15 19 25 26 nan nan nan nan nan nan nan nan nan nan nan nan nan nan
24 24 26 26 25 21 19 nan nan nan 14 21 20 23 21 24 24 nan nan nan nan nan nan nan nan nan nan nan nan nan nan nan
24 25 26 25 26 24 18 20 16 12 15 17 20 21 25 30 28 nan nan nan nan nan nan nan nan nan nan nan nan nan nan nan
21 24 24 24 24 26 31 14 22 15 11 16 23 25 28 34 40 nan nan nan nan nan nan nan nan nan nan nan nan nan nan nan
25 28 28 26 26 25 27 30 29 24 13 20 29 21 31 38 nan nan nan nan nan nan nan nan nan nan nan nan nan nan nan nan
Wind_Direction
213 232 250 257 262 260 266 264 264 262 261 270 266 272 267 265 265 274 280 279 273 272 nan nan nan nan nan nan nan nan nan nan
nan nan 250 245 252 257 256 255 262 260 264 261 267 265 267 268 268 273 275 270 265 nan nan nan nan nan nan nan nan nan nan nan
nan 257 nan 247 262 258 260 270 256 263 273 273 288 nan nan 269 268 267 259 248 nan nan nan nan nan nan nan nan nan nan nan nan
273 262 nan nan nan 266 273 274 290 260 nan 281 272 268 273 260 265 266 247 216 nan nan nan nan nan nan nan nan nan nan nan nan
275 275 nan nan nan nan nan nan 287 253 278 262 267 273 282 268 nan nan nan nan nan nan nan nan nan nan nan nan nan nan nan nan
271 nan 275 nan nan nan nan nan 252 272 283 282 270 286 283 260 nan nan nan nan nan nan nan nan nan nan nan nan nan nan nan nan
nan nan nan nan nan nan nan nan 263 284 283 270 277 281 265 241 228 nan nan nan nan nan nan nan nan nan nan nan nan nan nan nan
nan nan nan nan nan nan nan nan nan 281 276 267 281 242 206 184 160 179 nan nan nan nan nan nan nan nan nan nan nan nan nan nan
nan nan nan nan nan nan nan nan nan nan 243 234 208 177 160 161 190 196 nan nan nan nan nan nan nan nan nan nan nan nan nan nan
nan nan nan nan nan nan nan nan nan 116 113 144 137 126 188 175 196 203 nan nan nan nan nan nan nan nan nan nan nan nan nan nan
nan nan nan nan nan nan nan nan 106 110 129 148 116 151 238 225 189 211 nan nan nan nan nan nan nan nan nan nan nan nan nan nan
nan nan nan nan nan nan nan nan nan nan 131 120 320 207 297 243 199 241 nan nan nan nan nan nan nan nan nan nan nan nan nan nan
nan nan nan nan nan nan 28 nan nan nan 35 343 298 241 295 271 235 nan nan nan nan nan nan nan nan nan nan nan nan nan nan nan
nan nan nan nan nan 18 22 nan nan nan 307 303 297 14 295 271 247 nan nan nan nan nan nan nan nan nan nan nan nan nan nan nan
nan 6 nan nan 12 13 16 nan nan nan 324 300 277 301 279 274 272 nan nan nan nan nan nan nan nan nan nan nan nan nan nan nan
nan nan nan nan 10 nan 360 nan nan nan 325 313 301 290 280 276 284 285 nan nan nan nan nan nan nan nan nan nan nan nan nan nan
355 354 355 357 356 358 343 nan nan nan 302 303 296 287 290 295 292 nan nan nan nan nan nan nan nan nan nan nan nan nan nan nan
342 350 350 353 348 350 349 332 331 319 303 303 307 307 306 298 292 nan nan nan nan nan nan nan nan nan nan nan nan nan nan nan
339 348 357 350 346 340 343 338 331 320 294 303 305 301 304 306 307 nan nan nan nan nan nan nan nan nan nan nan nan nan nan nan
342 348 351 354 345 336 334 342 310 297 279 295 285 305 309 313 nan nan nan nan nan nan nan nan nan nan nan nan nan nan nan nan